Flag for El Salvador Weather past 2 weeks in Santa Ana, El Salvador

Now
86 °F

Scattered clouds.


Feels Like: 93 °F
Forecast: 63 / 85 °F
Wind: 3 mph from Southeast

Location: San Salvador / Ilopango

Current Time: Aug 22, 2014 at 12:24:54 PM

Latest Report: Aug 22, 2014 at 11:50 AM


Visibility: N/A

Pressure: 30.01 "Hg

Humidity: 66%

Dew point: 73 °F

Location of Santa AnaLocation

Historic Weather in Santa Ana — Graph

°F

Santa Ana temperature yesterday

Maximum temperature yesterday: 86 °F (at 11:50 AM)
Minimum temperature yesterday: 68 °F (at 5:50 AM)
Average temperature yesterday: 78 °F

Past Weeks' High & Low Weather Summary

 TemperatureHumidityPressure
High91 °F (Aug 18, 2:50 PM)100% (Aug 7, 10:50 PM)30.09 "Hg (Aug 7, 10:50 PM)
Low64 °F (Aug 15, 5:57 AM)52% (Aug 13, 3:50 PM)29.86 "Hg (Aug 19, 5:50 PM)
Average78 °F81%29.99 "Hg
* Reported Aug 7 10:50 AM — Aug 22 10:50 AM, Santa Ana, Weather by CustomWeather, © 2014

Note: Actual official high and low records may vary slightly from our data, if they occured in-between our weather recording intervals... More about our weather records

Advertising

Santa Ana weather history for previous 24 hours

 ConditionsComfort  
Time TempWeatherWind HumidityBarometerVisibility
10:50 AM
Aug 22
82 °FScattered clouds.5 mph74%30.04 "HgN/A
9:50 AM82 °FPassing clouds.3 mph74%30.04 "HgN/A
8:50 AM77 °FSunny.5 mph83%30.04 "Hg10 mi
7:50 AM73 °FSunny.3 mph94%30.01 "Hg10 mi
6:50 AM70 °FSunny.2 mph100%30.01 "Hg10 mi
5:50 AM70 °FPassing clouds.5 mph100%30.01 "HgN/A
2:00 AMN/A43 mphN/AN/AN/A
11:50 PM
Aug 21
75 °FPassing clouds.No wind94%30.04 "HgN/A
10:50 PM73 °FPassing clouds.No wind94%30.04 "HgN/A
9:50 PM73 °FClear.No wind94%30.01 "Hg10 mi
8:50 PM75 °FPassing clouds.No wind94%30.01 "HgN/A
7:50 PM75 °FClear.No wind94%30.01 "Hg10 mi
6:50 PM77 °FClear.2 mph89%30.01 "Hg10 mi
5:50 PM79 °FPassing clouds.3 mph84%29.98 "HgN/A
4:50 PM81 °FThundershowers. Passing clouds.3 mph79%29.98 "HgN/A
3:50 PM84 °FPassing clouds.2 mph74%29.98 "HgN/A
2:50 PM86 °FPassing clouds.3 mph66%29.98 "HgN/A
1:50 PM86 °FPassing clouds.5 mph66%30.01 "HgN/A
12:50 PM86 °FPassing clouds.3 mph62%30.04 "HgN/A
Weather by CustomWeather, © 2014

See weather overviewHow to use our weather pages